This is the latest recevied weather packets stored in our database for station/object K3CHZ. If no packets are shown the sender has not sent any weather packets the latest 10 day(s).
| Time | Temp. | Humidity | Pressure | Rain* | Wind** | Luminosity | Snow |
|---|---|---|---|---|---|---|---|
| 1777581144 | 17.78° C | 45% | 1008.4 hPa | 0 mm | - | - | - |
| 1777580844 | 17.78° C | 47% | 1008.4 hPa | 0 mm | - | - | - |
| 1777580704 | 17.78° C | 47% | 1008.4 hPa | 0 mm | - | - | - |
| 1777580404 | 17.22° C | 48% | 1008.3 hPa | 0 mm | - | - | - |
| 1777580103 | 17.22° C | 48% | 1008.3 hPa | 0 mm | - | - | - |
| 1777579804 | 17.22° C | 47% | 1008.3 hPa | 0 mm | - | - | - |
| 1777579338 | 17.78° C | 44% | 1008.3 hPa | 0 mm | - | - | - |
| 1777579038 | 18.33° C | 42% | 1008.1 hPa | 0 mm | - | - | - |
| 1777578738 | 18.33° C | 43% | 1008.2 hPa | 0 mm | - | - | - |
| 1777578438 | 18.33° C | 44% | 1008.1 hPa | 0 mm | - | - | - |
| 1777578138 | 18.33° C | 45% | 1008.1 hPa | 0 mm | - | - | - |
| 1777577838 | 18.33° C | 44% | 1008.1 hPa | 0 mm | - | - | - |
| 1777577538 | 18.33° C | 43% | 1008.1 hPa | 0 mm | - | - | - |
| 1777577239 | 18.89° C | 40% | 1008 hPa | 0 mm | - | - | - |
| 1777576938 | 18.33° C | 43% | 1008.1 hPa | 0 mm | - | - | - |
| 1777576638 | 17.78° C | 49% | 1008.1 hPa | 0 mm | - | - | - |
| 1777576338 | 17.78° C | 44% | 1008.1 hPa | 0 mm | - | - | - |
| 1777576038 | 17.78° C | 45% | 1008.2 hPa | 0 mm | - | - | - |
| 1777575738 | 17.78° C | 46% | 1008.2 hPa | 0 mm | - | - | - |
| 1777575439 | 18.33° C | 48% | 1008.2 hPa | 0 mm | - | - | - |
| 1777575138 | 18.33° C | 47% | 1008.4 hPa | 0 mm | - | - | - |
| 1777574838 | 18.33° C | 48% | 1008.4 hPa | 0 mm | - | - | - |
| 1777574538 | 18.33° C | 45% | 1008.3 hPa | 0 mm | - | - | - |
| 1777574238 | 18.33° C | 45% | 1008.2 hPa | 0 mm | - | - | - |
| 1777573938 | 17.78° C | 45% | 1008.4 hPa | 0 mm | - | - | - |
* Rain latest hour (hover to see other rain measurements)
** Current wind speed in m/s (hover to see current wind gust speed)